Probability
3 3 3 4 4 3 3 2 1 0 0 0 0 0 0 0 1 2 3 2 2 1 0 0 0 0 0 0 0 0 0 0 0 0 0 0 0 0 0 0 0 0 0
2 2 3 4 5 4 4 3 1 0 0 0 0 0 0 0 1 2 2 2 1 1 0 0 0 0 0 0 0 0 0 0 0 0 0 0 0 0 0 0 0 0 0
3 2 3 4 5 6 4 3 2 1 0 0 0 0 0 0 1 2 1 1 1 0 0 0 0 0 0 0 0 0 0 0 0 0 0 0 0 0 0 0 0 0 0
5 5 4 5 6 6 4 4 3 2 1 1 1 1 1 1 1 1 0 1 1 0 0 0 0 0 0 0 0 0 0 0 0 0 0 0 0 0 0 0 0 0 0
6 6 6 6 5 5 4 4 4 4 3 2 2 2 2 1 0 0 0 0 1 0 0 0 0 0 0 0 0 0 0 0 0 0 0 0 0 0 0 0 0 0 0
5 6 5 5 5 4 2 2 2 3 3 3 3 2 1 1 0 0 0 0 0 0 0 0 0 0 0 0 0 0 0 0 0 0 0 0 0 0 0 0 0 0 0
3 4 4 4 4 3 1 0 0 1 1 1 2 2 2 1 0 0 0 0 0 0 0 0 0 0 0 0 0 0 0 0 0 0 0 0 0 0 0 0 0 0 0
1 2 3 3 3 2 1 0 0 0 0 0 1 2 2 1 0 0 0 0 0 0 0 0 0 0 0 0 0 0 0 0 0 0 0 0 0 0 0 0 0 0 0
0 1 2 3 3 3 1 0 0 0 0 0 0 1 1 1 0 0 0 0 0 0 0 0 0 0 0 0 0 0 0 0 0 0 0 0 0 0 0 0 0 0 0
0 1 2 3 3 3 2 1 0 0 0 0 0 0 0 0 0 0 0 0 0 0 0 0 0 0 0 0 0 0 0 0 0 0 0 0 0 0 0 0 0 0 0
0 1 2 3 3 3 2 1 0 0 0 0 0 0 0 0 0 0 0 0 0 0 0 0 0 0 0 0 0 0 0 0 0 0 0 0 0 0 0 0 0 0 0
1 1 2 3 3 3 3 1 0 0 0 0 0 0 0 0 0 0 0 0 0 0 0 0 0 0 0 0 0 0 0 0 0 0 0 0 0 0 0 0 0 0 0
2 2 3 3 3 3 3 2 1 0 0 0 0 0 0 0 0 0 0 0 0 0 0 0 0 0 0 0 0 0 0 0 0 0 0 0 0 0 0 0 0 0 0
3 3 3 3 3 3 3 2 1 0 0 0 0 0 0 0 0 0 0 0 0 0 0 0 0 0 0 0 0 0 0 0 0 0 0 0 0 0 0 0 0 0 0
2 3 3 3 3 3 3 2 1 0 0 0 0 0 0 0 0 0 0 0 0 0 0 0 0 0 0 0 0 0 0 0 0 0 0 0 0 0 0 0 0 0 0
2 3 3 3 3 3 2 1 0 0 0 0 0 0 0 0 0 0 0 0 0 0 0 0 0 0 0 0 0 0 0 0 0 0 0 0 0 0 0 0 0 0 0
3 3 3 3 3 3 1 0 0 0 0 0 0 0 0 0 0 0 0 0 0 0 0 0 0 0 0 0 0 0 0 0 0 0 0 0 0 0 0 0 0 0 0
3 3 3 3 3 2 1 0 0 0 0 0 0 0 0 0 0 0 0 0 0 0 0 0 0 0 0 0 0 0 0 0 0 0 0 0 0 0 0 0 0 0 0
3 3 3 3 2 1 0 0 0 0 0 0 0 0 0 0 0 0 0 0 0 0 0 0 0 0 0 0 0 0 0 0 0 0 0 0 0 0 0 0 0 0 0
2 2 2 1 1 0 0 0 0 0 0 0 0 0 0 0 0 0 0 0 0 0 0 0 0 0 0 0 0 0 0 0 0 0 0 0 0 0 0 0 0 0 0
1 1 1 0 0 0 0 0 0 0 0 0 0 0 0 0 0 0 0 0 0 0 0 0 0 0 0 0 0 0 0 0 0 0 0 0 0 0 0 0 0 0 0
0 0 0 0 0 0 0 0 0 0 0 0 0 0 0 0 0 0 0 0 0 0 0 0 0 0 0 0 0 0 0 0 0 0 0 0 0 0 0 0 0 0 0
0 0 0 0 0 0 0 0 0 0 0 0 0 0 0 0 0 0 0 0 0 0 0 0 0 0 0 0 0 0 0 0 0 0 0 0 0 0 0 0 0 0 0
0 0 0 0 0 0 0 0 0 0 0 0 0 0 0 0 0 0 0 0 0 0 0 0 0 0 0 0 0 0 0 0 0 0 0 0 0 0 0 0 0 0 0
0 0 0 0 0 0 0 0 0 0 0 0 0 0 0 0 0 0 0 0 0 0 0 0 0 0 0 0 0 0 0 0 0 0 0 0 0 0 0 0 0 0 0
0 0 0 0 0 0 0 0 0 0 0 0 0 0 0 0 0 0 0 0 0 0 0 0 0 0 0 0 0 0 0 0 0 0 0 0 0 0 0 0 0 0 0
Wind_Speed
5 5 4 4 4 4 3 4 4 4 4 4 4 4 3 3 3 3 3 3 3 2 2 3 3 2 2 2 2 2 2 3 3 1 1 2 3 3 2 1 2 2 2
4 5 4 4 4 4 4 4 5 4 3 3 3 3 3 3 3 3 3 2 2 2 2 3 2 2 2 2 1 2 2 2 3 2 1 1 2 2 1 1 1 2 1
5 5 4 4 4 4 4 4 5 4 4 4 4 3 3 3 3 3 2 2 2 2 3 3 2 2 2 1 1 2 1 2 2 2 1 1 1 1 2 1 2 1 0
5 5 4 4 4 4 4 4 4 4 4 4 4 4 3 3 3 2 2 3 2 2 2 3 3 3 1 1 2 2 2 2 2 2 1 1 0 1 1 0 1 1 1
5 5 5 5 4 3 3 3 3 3 4 4 4 4 3 3 2 2 2 3 3 3 3 3 4 5 6 4 3 2 2 1 1 2 1 1 0 1 0 1 0 1 2
6 5 5 5 5 3 3 3 3 3 3 4 4 4 4 3 5 5 3 2 2 3 3 3 4 4 5 5 6 5 4 2 2 1 1 1 1 0 0 0 0 1 2
6 6 6 6 6 5 4 3 4 3 3 3 4 4 4 3 5 4 3 1 1 2 2 2 2 3 3 2 2 3 2 2 2 2 1 1 1 0 0 1 1 0 2
6 7 6 6 6 5 4 4 4 4 3 3 3 4 4 3 5 4 2 1 1 1 2 2 2 2 1 2 2 2 1 0 1 1 2 1 1 0 1 1 1 1 1
7 7 7 6 6 6 5 4 4 3 4 4 3 4 5 4 4 3 2 1 1 1 2 2 2 2 3 3 2 2 1 0 1 3 2 1 2 2 2 2 2 1 2
7 7 7 7 7 6 5 4 3 3 4 4 4 4 5 4 5 4 3 1 1 1 2 2 3 3 3 2 1 2 2 1 0 0 0 1 0 1 1 1 1 0 1
6 7 7 7 7 6 5 4 4 3 4 4 4 4 4 5 6 6 5 2 2 2 2 2 1 3 3 3 2 1 1 1 0 0 0 0 0 0 1 1 1 1 1
6 6 7 7 7 6 5 4 4 4 4 4 3 3 3 4 5 6 7 4 2 2 2 2 2 4 4 3 2 1 1 1 0 0 0 1 1 1 1 1 1 1 2
6 6 6 7 6 6 6 5 4 4 4 3 3 3 3 3 4 7 8 7 4 2 2 4 4 4 4 2 3 2 1 0 0 0 1 2 1 1 1 1 1 1 2
6 5 5 6 6 5 5 4 4 4 4 4 3 3 3 3 3 3 3 4 4 3 2 3 3 3 3 2 2 2 2 2 1 2 2 1 1 0 1 1 1 1 2
6 6 5 5 5 5 4 3 4 3 4 5 4 4 4 3 5 6 5 3 3 3 3 2 2 2 2 2 2 2 2 2 2 2 1 1 1 1 1 1 1 1 2
5 5 5 4 5 5 4 3 2 2 4 5 4 4 3 4 7 9 8 7 7 6 4 2 3 3 3 3 3 3 2 3 3 2 2 2 2 2 2 1 1 1 2
5 5 4 5 5 5 5 5 3 1 2 3 4 5 5 6 6 7 7 6 6 7 4 3 3 3 3 3 3 3 3 3 2 2 2 2 2 2 1 2 2 2 2
5 5 5 4 4 4 5 5 5 5 3 2 3 5 7 7 7 7 7 5 3 4 3 4 3 3 3 2 2 2 2 2 2 2 2 2 2 2 2 2 2 2 3
4 4 4 4 4 4 4 4 4 5 4 4 3 3 6 6 5 6 7 4 4 4 4 4 3 3 2 2 2 2 2 2 2 2 2 2 2 2 2 2 2 3 3
3 5 5 4 4 4 4 4 4 4 4 4 4 4 4 4 3 4 4 4 4 4 3 3 3 3 3 2 2 2 2 2 3 2 2 2 3 2 3 3 2 2 3
3 4 5 4 4 4 4 4 4 4 4 4 4 5 8 5 5 5 4 4 4 4 3 3 3 3 3 2 2 3 3 3 2 3 3 3 3 2 2 2 3 3 3
3 3 3 3 3 3 3 3 4 4 4 4 3 4 7 4 4 4 4 4 4 4 3 3 3 3 3 3 3 3 3 3 2 2 2 2 2 2 2 2 2 2 3
3 3 3 3 3 4 3 3 3 3 3 3 3 4 4 4 3 3 3 3 3 3 3 3 2 2 2 2 2 3 3 3 3 3 2 2 2 2 2 3 3 3 4
3 3 3 3 3 3 3 3 3 3 3 3 3 3 3 3 3 3 3 2 2 2 2 2 2 3 3 2 1 2 2 2 2 2 3 3 3 3 3 3 3 4 4
3 3 3 2 3 3 3 3 3 3 3 3 3 3 3 2 2 2 2 2 2 2 2 2 2 2 3 3 2 2 2 2 2 2 2 3 4 4 3 3 3 3 4
3 3 3 2 2 2 2 2 2 2 2 2 2 2 2 2 2 2 2 2 2 2 2 2 2 2 2 2 3 3 3 3 3 3 3 3 3 3 3 3 4 4 4
Wind_Direction
177 164 164 166 162 158 149 146 140 138 140 140 137 131 130 127 123 114 112 101 108 105 93 92 78 65 64 48 39 51 58 89 109 89 79 93 95 90 87 91 105 113 97
169 162 160 160 158 161 155 148 140 139 140 140 137 128 126 123 123 123 125 117 117 121 112 102 100 82 69 52 52 60 67 89 112 122 99 80 94 113 109 85 86 100 108
166 156 156 163 164 164 157 153 150 149 144 135 129 125 124 120 114 123 126 121 110 103 102 98 93 89 90 66 68 66 66 80 95 114 116 83 75 76 66 27 28 14 36
161 156 157 157 148 151 149 148 143 145 144 139 136 130 127 124 121 119 119 115 111 97 90 90 86 86 84 92 78 68 74 82 91 103 105 69 72 65 79 17 346 330 318
158 157 156 142 132 130 137 142 132 131 129 127 128 124 116 110 93 88 115 127 131 123 109 99 90 86 77 76 81 70 71 81 101 107 109 69 39 41 324 250 287 287 299
165 157 142 137 131 130 138 141 129 122 120 120 121 120 117 108 94 75 67 76 118 128 127 129 128 111 100 94 92 87 86 99 117 116 137 167 226 210 280 359 337 354 315
158 148 146 146 143 149 158 142 138 141 138 131 129 121 117 115 116 99 73 59 78 107 123 130 125 121 133 141 122 104 72 66 118 142 160 213 186 218 104 328 306 282 254
160 157 156 155 153 155 159 152 150 154 155 146 142 135 127 134 138 135 138 158 131 113 122 129 129 120 98 103 113 108 113 160 184 152 157 191 133 93 167 210 238 303 305
166 162 159 156 153 157 163 161 161 156 151 151 150 142 137 143 147 145 152 177 150 128 95 85 104 110 88 84 121 135 119 131 133 126 132 124 69 41 46 49 20 19 316
171 165 160 159 157 165 169 164 157 150 154 155 155 154 153 150 154 150 165 178 155 140 121 100 90 116 107 99 141 154 163 212 145 53 354 327 334 359 10 139 176 237 289
163 159 156 159 161 163 160 160 151 151 152 156 156 162 161 155 160 165 168 174 179 157 152 154 144 151 148 135 123 129 155 126 142 158 175 232 321 211 250 224 187 176 208
153 157 158 158 162 160 156 159 160 161 159 164 162 165 163 155 158 173 174 179 174 158 164 151 147 154 155 146 144 126 83 55 38 341 257 258 254 256 253 239 238 216 209
151 157 159 157 157 155 157 161 167 166 165 173 173 174 169 160 161 168 178 184 188 179 161 154 157 162 161 168 190 200 186 158 191 220 244 246 235 239 249 286 301 287 279
154 155 155 156 154 154 156 165 172 175 175 179 179 183 176 163 161 164 173 184 180 176 180 171 178 184 185 205 203 212 200 192 198 225 235 248 285 302 266 248 271 284 287
160 162 164 156 153 150 148 160 170 178 183 181 185 179 175 185 188 169 165 177 180 184 170 165 179 181 193 210 210 206 200 199 221 232 226 245 259 261 266 268 260 275 277
172 167 162 155 153 153 150 137 112 146 157 166 170 170 175 178 171 171 174 175 176 175 165 177 198 205 208 206 205 209 205 209 215 213 216 227 236 244 263 273 259 251 267
173 163 160 161 162 164 163 164 161 126 118 162 173 174 180 177 173 172 175 177 177 165 172 200 208 210 212 208 205 204 209 211 205 201 207 223 237 247 257 271 268 263 267
169 168 164 163 164 168 171 172 172 172 178 194 194 192 190 185 187 184 170 155 174 186 201 206 211 214 212 208 206 207 204 196 196 204 208 219 225 233 244 255 255 260 269
167 164 163 158 162 168 171 174 179 183 183 182 173 187 193 185 190 189 171 181 192 200 206 212 212 211 210 207 204 202 201 196 202 209 215 220 223 226 241 249 252 273 273
170 167 165 164 168 173 177 181 185 184 185 186 187 185 168 161 179 195 200 204 201 206 206 208 209 209 211 209 204 200 205 207 211 216 219 225 230 229 237 243 248 258 260
159 167 175 174 179 181 182 187 185 179 182 187 190 183 175 178 187 192 194 199 204 209 210 208 205 203 206 202 202 207 210 213 213 217 224 230 229 232 235 237 248 252 262
170 175 178 182 180 182 185 186 182 181 185 185 178 176 181 186 186 189 196 197 198 202 202 201 203 201 199 201 201 201 207 217 221 221 227 231 232 235 237 241 250 258 262
174 177 180 180 175 181 187 188 184 184 181 173 169 169 181 193 192 193 198 196 187 188 188 190 194 197 197 198 192 186 197 212 218 212 215 226 237 241 240 241 243 251 258
177 177 177 176 172 174 179 182 181 177 171 167 170 172 180 187 187 189 187 186 188 190 186 183 185 192 199 200 190 184 196 203 210 215 216 227 235 238 239 245 249 253 256
172 168 169 174 178 176 177 178 178 178 174 175 178 174 173 173 178 181 178 181 188 192 193 190 185 188 198 203 195 192 193 194 213 232 225 225 233 238 241 247 254 261 257
166 163 165 171 175 172 173 177 179 176 173 175 170 167 168 171 177 180 177 177 184 189 192 192 192 196 202 193 188 191 195 214 231 247 247 239 239 243 243 250 256 258 258